Wind_Speed
33 30 32 34 34 35 39 40 38 37 38 34 37 36 40 35 31 36 31 32 29 25 18 15 14 10 8 7 5 6 7 7 9 10 10 9 10 11 12 11 10 9 9
23 22 27 29 31 33 37 42 43 38 34 36 38 38 34 41 34 35 32 31 30 24 23 19 14 11 6 7 6 6 7 10 9 8 8 9 10 11 11 9 9 8 9
21 20 17 19 22 30 34 36 40 35 36 41 38 34 32 30 31 38 35 31 28 24 22 19 14 9 11 7 6 7 9 9 9 9 9 10 9 9 8 8 8 7 7
23 23 19 18 17 19 26 34 36 41 23 34 33 37 35 30 34 39 36 33 30 23 19 18 13 11 8 7 8 9 8 8 9 11 10 10 9 9 9 8 8 8 8
27 26 26 25 23 22 23 26 36 39 38 25 28 27 31 31 34 43 34 30 26 24 22 16 13 13 10 9 12 11 10 11 11 11 10 10 9 8 9 10 9 8 7
27 28 28 29 27 25 25 27 32 42 40 31 24 21 30 33 36 40 40 36 29 23 20 19 17 15 12 12 12 10 10 10 11 10 10 10 9 9 10 10 10 9 8
30 30 29 30 30 28 28 34 38 36 32 29 24 26 33 33 42 38 42 34 27 24 24 21 18 16 13 12 10 9 10 11 11 11 10 11 11 10 10 11 10 10 9
28 30 28 32 30 31 31 32 31 31 31 22 25 29 28 44 45 44 42 28 28 27 24 22 20 15 13 13 12 10 12 13 15 12 12 13 13 12 12 12 12 11 11
29 29 28 29 30 32 30 28 24 31 29 24 26 27 31 41 46 37 35 31 31 27 27 23 19 16 15 13 12 10 12 14 14 13 13 16 13 13 13 15 13 12 13
25 20 21 25 30 31 32 33 22 36 23 24 22 26 21 24 29 37 34 33 32 31 27 23 19 18 15 14 12 11 12 10 10 12 14 15 14 15 14 15 14 13 11
18 17 15 20 26 31 32 33 33 33 24 21 19 22 24 25 26 38 35 36 34 29 26 23 21 17 16 16 12 11 13 11 12 13 14 16 16 16 16 15 16 13 12
18 15 14 17 16 24 33 34 31 30 32 24 23 24 24 29 33 45 41 38 32 28 27 23 21 19 19 17 16 15 14 13 13 12 14 17 18 16 17 17 17 15 13
17 15 12 9 15 24 23 30 32 24 31 29 29 23 28 29 37 44 41 40 30 28 26 25 23 21 21 18 16 16 17 14 15 16 18 20 22 20 19 18 17 16 15
17 18 13 6 16 25 26 26 36 36 31 34 32 30 32 36 37 53 42 40 34 31 28 27 24 23 21 18 19 18 19 18 20 20 20 23 21 20 18 17 17 18 16
16 16 16 10 9 23 25 23 29 35 32 41 32 31 32 30 34 46 38 39 38 33 30 29 25 25 22 19 19 19 22 22 24 24 21 22 22 20 18 19 14 17 13
16 16 17 16 13 15 23 25 34 31 32 29 32 35 35 37 37 46 42 40 39 33 32 30 30 27 22 19 18 19 21 22 26 25 23 24 23 21 20 15 16 14 17
15 16 17 19 16 18 20 24 30 29 30 27 33 37 37 41 45 50 45 44 41 35 33 31 30 26 20 19 17 20 21 25 26 27 26 28 26 20 20 15 17 20 20
16 18 21 19 18 16 16 15 30 38 36 29 33 37 35 38 37 53 48 44 42 39 35 30 29 25 23 21 22 22 25 26 28 32 33 28 25 25 22 19 20 19 23
15 18 15 8 19 13 14 12 23 35 32 33 39 35 38 39 37 42 48 49 43 43 34 31 28 27 24 24 24 25 27 29 32 32 30 29 27 23 21 21 24 27 26
14 15 12 6 15 6 10 13 14 28 33 28 31 35 39 31 25 39 35 48 47 40 35 31 29 26 25 25 25 27 29 30 33 32 35 34 28 26 29 28 27 27 30
13 12 8 10 8 19 15 9 4 25 27 25 26 27 30 32 34 31 32 42 43 38 32 28 26 26 26 28 27 29 29 32 34 36 35 29 28 29 32 28 27 30 33
13 11 8 7 10 9 10 6 8 7 16 22 26 29 24 20 15 18 20 31 36 32 27 27 27 26 26 27 28 30 31 33 32 35 33 33 32 33 29 30 31 32 34
13 10 8 7 7 9 7 10 9 8 5 5 17 17 22 21 16 15 14 18 22 24 25 24 25 26 28 27 27 26 26 27 31 31 31 30 30 33 34 33 34 35 38
12 8 5 5 5 5 4 1 8 16 8 10 7 12 11 15 17 17 20 19 22 21 22 21 24 25 25 23 22 19 20 24 21 24 28 28 30 31 33 36 37 38 41
8 9 5 5 5 4 4 3 3 4 6 9 10 15 15 18 21 17 19 24 24 22 20 21 17 18 18 19 15 17 17 20 22 25 24 24 31 35 37 40 41 41 42
8 7 7 5 5 5 4 3 2 3 3 5 5 5 15 18 18 18 18 20 20 16 17 15 15 16 15 14 15 20 21 22 24 25 29 34 38 37 38 44 44 45 48
Wind_Direction
273 267 260 254 247 238 236 238 242 242 241 240 238 234 230 224 224 216 222 226 215 215 208 212 219 217 213 223 246 267 270 292 300 300 305 305 308 318 314 315 305 293 279
264 262 259 255 250 244 236 237 238 240 245 242 237 232 232 227 220 216 219 219 208 205 213 212 211 205 204 233 246 265 277 290 290 298 302 302 308 308 304 295 285 281 274
258 270 270 260 253 248 244 243 242 240 248 237 228 226 232 228 211 218 210 212 208 200 199 208 202 199 225 227 255 258 270 277 278 288 283 289 299 292 288 282 273 263 260
276 279 281 275 269 264 250 247 244 230 240 226 215 224 232 228 217 219 199 208 206 193 192 204 192 223 207 233 256 254 262 275 283 283 286 294 291 292 285 273 269 269 275
286 282 282 276 272 272 249 251 240 239 229 263 215 216 225 216 215 210 195 199 200 206 202 201 222 206 209 235 245 254 265 262 268 273 282 287 286 284 284 275 278 273 280
281 279 275 272 271 266 253 247 239 235 247 239 224 212 210 220 208 200 200 207 199 202 208 221 205 210 213 230 241 246 255 267 267 275 278 278 277 280 274 277 270 265 259
271 272 270 263 266 255 251 240 230 222 240 247 248 226 223 222 212 217 208 201 202 198 219 203 205 214 217 225 236 250 269 264 266 258 254 260 263 268 266 270 268 267 263
276 267 264 257 257 248 245 238 220 208 221 222 242 245 215 212 212 207 202 187 205 219 205 207 211 217 219 223 237 262 269 270 262 254 252 248 248 256 258 255 254 258 260
283 275 266 258 254 248 241 253 227 212 207 210 219 241 250 218 207 203 198 191 207 211 211 209 213 221 224 225 231 246 279 267 253 251 253 252 246 252 258 258 256 255 256
283 276 268 259 253 251 235 235 228 198 203 207 213 229 242 229 210 202 196 200 206 207 212 210 217 225 223 222 242 258 281 260 251 246 244 264 252 258 260 263 265 260 263
290 288 285 289 248 245 232 232 225 218 200 213 208 219 220 243 233 218 198 200 205 208 214 215 224 229 230 228 235 250 261 260 254 252 255 251 247 252 259 260 264 262 262
290 288 292 284 242 231 226 228 227 219 202 209 209 217 218 211 226 215 204 203 213 210 219 221 230 232 231 228 235 244 257 271 261 255 255 243 245 246 255 254 256 254 250
303 297 302 262 234 234 218 219 224 224 226 219 209 217 231 221 216 218 201 201 215 215 220 227 229 237 236 234 241 248 258 260 253 251 249 244 243 240 250 252 251 255 250
303 300 303 287 224 209 207 219 221 221 219 225 228 223 221 236 232 227 198 205 214 215 222 232 233 240 241 245 251 251 258 258 258 253 250 251 235 240 244 254 253 256 251
299 294 300 296 234 210 228 225 209 227 241 235 237 231 227 241 224 201 197 208 215 216 222 233 235 242 249 253 259 256 256 256 244 249 250 235 236 239 250 252 249 258 262
305 295 295 292 248 221 215 217 215 222 226 222 226 232 234 231 225 202 204 210 215 219 227 231 238 246 246 254 257 260 265 255 247 249 242 240 241 239 247 245 256 262 263
316 304 290 279 267 234 227 237 228 224 226 224 230 229 228 230 227 218 212 210 216 222 229 235 243 247 253 254 260 264 266 259 253 257 249 236 241 242 244 248 257 259 261
321 318 293 277 270 241 237 260 228 215 224 220 218 228 234 228 229 213 213 214 220 223 228 236 241 252 255 259 266 269 266 264 259 256 246 239 238 243 246 250 254 249 277
327 334 326 281 271 219 232 276 236 220 217 213 221 232 227 224 235 216 227 217 225 224 230 233 241 254 261 265 267 266 268 260 257 254 241 239 238 245 248 247 256 266 271
328 338 356 300 284 246 245 273 228 211 215 221 225 224 216 220 236 240 242 225 226 222 230 235 241 254 263 267 265 265 263 261 256 254 244 241 239 244 247 252 256 266 269
321 326 343 354 298 299 283 303 228 207 204 214 220 221 228 242 253 240 235 231 218 224 227 234 246 253 264 264 272 269 264 263 260 256 248 234 242 245 255 248 255 265 274
314 321 325 341 343 326 276 296 225 191 208 214 218 228 217 207 222 221 224 220 227 231 235 244 255 264 268 276 273 270 268 262 259 255 244 238 245 249 252 256 263 266 271
307 319 318 329 347 351 269 237 283 202 222 233 221 200 206 212 223 227 217 219 232 236 245 255 267 273 273 274 276 271 271 264 260 255 251 241 249 253 254 257 269 275 281
302 310 324 327 355 4 15 290 272 275 263 233 233 206 222 228 229 232 233 246 255 256 255 265 272 271 272 270 265 268 263 262 258 260 252 254 255 251 257 266 272 277 283
290 299 310 325 337 359 359 38 8 340 336 305 267 242 236 227 236 253 254 263 262 257 258 260 261 265 263 263 261 263 265 270 269 261 257 264 262 263 267 270 273 277 276
275 284 299 309 318 334 329 310 333 278 264 290 283 245 237 234 249 254 249 252 257 251 242 248 244 263 265 269 266 263 263 269 271 268 266 264 267 267 272 279 279 281 283
Height
5787 5787 5787 5787 5789 5791 5793 5794 5797 5799 5802 5807 5809 5811 5814 5816 5819 5823 5826 5829 5829 5831 5832 5832 5835 5835 5836 5837 5838 5839 5840 5841 5841 5842 5841 5841 5842 5841 5841 5839 5839 5839 5839
5783 5782 5781 5781 5782 5784 5786 5788 5790 5793 5798 5801 5803 5807 5808 5811 5814 5819 5822 5826 5825 5827 5829 5830 5831 5833 5834 5836 5837 5837 5838 5839 5839 5839 5839 5839 5839 5839 5839 5838 5838 5838 5838
5778 5778 5776 5777 5778 5779 5780 5783 5787 5790 5793 5794 5797 5801 5805 5807 5810 5813 5817 5821 5822 5823 5824 5826 5828 5830 5834 5834 5834 5834 5835 5836 5836 5836 5836 5837 5837 5837 5837 5837 5837 5836 5836
5773 5774 5774 5774 5774 5775 5777 5778 5782 5786 5788 5789 5792 5795 5800 5802 5805 5808 5810 5815 5819 5820 5821 5825 5826 5828 5828 5830 5831 5832 5832 5832 5833 5834 5834 5836 5835 5836 5837 5835 5835 5835 5835
5769 5769 5769 5769 5771 5772 5772 5773 5774 5778 5782 5783 5784 5787 5794 5796 5799 5803 5807 5813 5816 5817 5818 5822 5822 5825 5825 5826 5828 5828 5829 5829 5830 5832 5832 5833 5834 5833 5834 5835 5834 5834 5835
5763 5763 5764 5764 5766 5767 5767 5766 5767 5770 5774 5779 5780 5783 5788 5792 5795 5798 5801 5808 5810 5813 5817 5818 5821 5822 5821 5823 5825 5825 5826 5827 5828 5829 5831 5832 5831 5833 5834 5834 5834 5834 5833
5758 5757 5758 5758 5760 5760 5761 5757 5757 5762 5769 5773 5777 5779 5785 5788 5790 5795 5799 5803 5808 5812 5815 5816 5817 5819 5819 5821 5822 5822 5823 5824 5826 5827 5827 5828 5830 5831 5830 5832 5833 5833 5833
5752 5750 5752 5750 5752 5752 5754 5742 5751 5753 5764 5766 5772 5776 5781 5783 5787 5790 5793 5799 5805 5808 5812 5812 5815 5815 5815 5816 5819 5819 5821 5822 5823 5824 5825 5826 5828 5830 5829 5830 5831 5831 5831
5745 5744 5745 5746 5745 5745 5749 5739 5737 5748 5759 5762 5767 5772 5775 5779 5783 5787 5790 5795 5802 5806 5809 5809 5811 5812 5812 5814 5815 5817 5819 5819 5820 5822 5823 5825 5824 5826 5827 5829 5828 5828 5830
5741 5739 5738 5740 5740 5739 5744 5742 5730 5737 5752 5757 5763 5768 5770 5778 5780 5782 5787 5793 5798 5803 5805 5807 5807 5808 5810 5811 5813 5814 5816 5816 5817 5818 5820 5821 5823 5825 5825 5827 5827 5827 5828
5737 5734 5733 5734 5735 5734 5735 5738 5734 5744 5745 5754 5760 5763 5766 5773 5778 5782 5786 5790 5795 5799 5802 5803 5804 5806 5808 5808 5809 5810 5813 5812 5813 5815 5816 5817 5819 5821 5823 5823 5825 5826 5826
5734 5732 5730 5730 5730 5731 5733 5736 5739 5743 5748 5754 5757 5762 5765 5770 5773 5776 5781 5786 5791 5795 5799 5799 5801 5804 5805 5804 5805 5806 5809 5809 5810 5811 5812 5814 5817 5818 5820 5821 5823 5824 5825
5730 5729 5727 5725 5726 5728 5731 5731 5730 5742 5748 5751 5755 5758 5761 5765 5768 5772 5775 5781 5788 5792 5794 5796 5797 5800 5801 5801 5801 5803 5805 5805 5807 5808 5810 5810 5813 5815 5817 5819 5820 5822 5823
5728 5726 5725 5723 5726 5726 5729 5730 5735 5738 5741 5745 5748 5755 5758 5760 5763 5765 5770 5778 5784 5787 5790 5791 5793 5796 5796 5797 5799 5800 5801 5803 5804 5804 5806 5807 5809 5810 5812 5815 5818 5820 5820
5727 5725 5722 5721 5723 5728 5729 5731 5733 5735 5736 5740 5746 5750 5753 5755 5760 5761 5766 5774 5779 5782 5785 5786 5790 5791 5793 5794 5795 5796 5797 5798 5799 5800 5800 5803 5806 5808 5810 5812 5815 5818 5818
5724 5722 5720 5720 5721 5722 5725 5727 5728 5729 5733 5736 5742 5746 5749 5752 5757 5758 5762 5769 5774 5778 5780 5782 5785 5787 5789 5789 5790 5791 5792 5793 5794 5795 5797 5800 5803 5806 5808 5810 5813 5814 5816
5723 5721 5719 5717 5717 5718 5720 5721 5721 5723 5727 5732 5736 5740 5744 5746 5751 5755 5759 5764 5769 5772 5775 5778 5781 5785 5785 5785 5786 5788 5788 5789 5790 5791 5794 5795 5798 5802 5804 5807 5808 5811 5812
5723 5719 5715 5713 5714 5715 5716 5716 5715 5717 5722 5725 5730 5735 5738 5740 5745 5751 5756 5760 5764 5766 5769 5773 5777 5780 5781 5782 5783 5783 5784 5785 5787 5787 5788 5791 5795 5797 5800 5802 5804 5806 5807
5723 5718 5713 5710 5711 5711 5712 5710 5707 5712 5718 5723 5727 5730 5733 5737 5741 5749 5751 5756 5758 5762 5766 5769 5771 5775 5777 5778 5778 5779 5780 5781 5781 5781 5784 5786 5789 5794 5797 5798 5799 5800 5800
5721 5718 5714 5712 5711 5710 5709 5708 5705 5708 5714 5719 5722 5726 5730 5736 5741 5745 5747 5750 5753 5757 5761 5765 5767 5770 5772 5774 5775 5776 5775 5776 5775 5777 5779 5781 5785 5788 5791 5794 5793 5794 5795
5718 5717 5715 5712 5709 5707 5707 5708 5707 5709 5711 5716 5719 5723 5729 5733 5737 5738 5740 5745 5749 5753 5757 5759 5762 5765 5767 5769 5768 5769 5769 5769 5770 5771 5773 5776 5781 5782 5784 5787 5788 5788 5788
5716 5715 5714 5712 5710 5707 5706 5708 5709 5710 5711 5713 5717 5721 5724 5729 5732 5735 5737 5742 5748 5751 5753 5755 5757 5761 5762 5762 5763 5763 5763 5763 5764 5767 5769 5771 5775 5778 5780 5780 5780 5779 5780
5715 5715 5713 5712 5709 5708 5706 5706 5709 5710 5711 5713 5714 5718 5722 5727 5730 5734 5737 5742 5745 5748 5750 5751 5753 5755 5755 5755 5756 5758 5758 5759 5759 5761 5764 5766 5768 5769 5771 5772 5772 5772 5771
5714 5714 5713 5712 5710 5709 5709 5708 5709 5709 5712 5714 5715 5717 5721 5725 5728 5731 5735 5738 5740 5742 5744 5745 5747 5749 5749 5750 5751 5751 5753 5756 5756 5758 5759 5761 5762 5763 5764 5764 5764 5765 5765
5714 5713 5713 5712 5711 5711 5710 5710 5710 5710 5712 5713 5715 5717 5719 5722 5725 5727 5730 5733 5735 5736 5738 5740 5741 5744 5745 5746 5746 5747 5750 5751 5752 5754 5756 5756 5756 5757 5757 5756 5756 5756 5756
5712 5712 5712 5712 5711 5710 5711 5712 5712 5711 5712 5714 5715 5715 5717 5720 5721 5723 5726 5728 5729 5730 5733 5736 5738 5740 5741 5743 5745 5746 5747 5747 5748 5748 5750 5751 5749 5750 5751 5748 5748 5748 5747